Regional Weather Roundup
Issued by NWS

Home | Current Version | Previous Version | Graphics & Text | Print | Product List | Glossary On
Versions: 1 2 3 4 5 6 7 8 9 10 11 12 13 14 15 16 17 18 19 20 21 22 23 24 25 26 27 28 29 30 31 32 33 34 35 36 37 38 39 40 41 42 43 44 45 46 47 48 49 50
000
ASUS43 KTOP 020708
RWRKS

WEATHER ROUNDUP FOR KANSAS
NATIONAL WEATHER SERVICE GOODLAND KS
200 AM CDT THU OCT 02 2014

NOTE:  "FAIR" INDICATES FEW OR NO CLOUDS BELOW 12,000 FEET WITH NO
SIGNIFICANT WEATHER AND/OR OBSTRUCTIONS TO VISIBILITY.

KSZ001>006-013>018-027>032-041>047-020800-
NORTHWEST KANSAS

CITY           SKY/WX    TMP DP  RH WIND       PRES   REMARKS
GOODLAND       CLOUDY    47  45  93 N20G28    29.95F
HAYS           PTCLDY    63  55  77 N17G23    29.78R
HILL CITY      MOCLDY    57  50  77 N17G23    29.85R
RUSSELL        CLEAR     61  59  93 N7        29.74R
$$

KSZ061>065-074>080-084>089-020800-
SOUTHWEST KANSAS

CITY           SKY/WX    TMP DP  RH WIND       PRES   REMARKS
DODGE CITY     MOCLDY    58  52  80 NW20G38   29.82R
GARDEN CITY    MOCLDY    56  47  71 N25G32    29.82F
GREAT BEND     CLEAR     61  57  88 N8        29.74R
LIBERAL        MOCLDY    64  54  68 N20G26    29.82R
PRATT          CLEAR     63  61  94 E3        29.73F FOG
$$

KSZ066>073-081>083-090>101-020800-
SOUTHEAST KANSAS

CITY           SKY/WX    TMP DP  RH WIND       PRES   REMARKS
CHANUTE        CLOUDY    73  69  87 S8        29.73F
COFFEYVILLE    MOCLDY    76  70  82 S12       29.71F
HUTCHINSON     CLEAR     65  62  90 CALM      29.71F
MEDICINE LODGE   N/A     67  64  90 E5        29.69F
NEWTON         CLEAR     66  54  63 SW5       29.74F
PARSONS        MOCLDY    74  70  87 S6        29.73F
WICHITA INTL   PTCLDY    70  58  65 CALM      29.71F
WICHITA JABRA  PTCLDY    75  64  68 S10       29.71F
WICHITA MCCONL PTCLDY    73  65  74 S9        29.71F
WINFIELD       PTCLDY    72  67  84 S7        29.71F
$$

KSZ007>012-019>026-033>040-048>060-102>105-020800-
NORTHEAST KANSAS

CITY           SKY/WX    TMP DP  RH WIND       PRES   REMARKS
CONCORDIA      CLEAR     62  62 100 E5        29.73F
EMPORIA        PTCLDY    64  64 100 N3        29.72S FOG
LAWRENCE       MOCLDY    65  63  93 SE3       29.74S
MANHATTAN      CLEAR     65  63  93 CALM      29.71F
MARYSVILLE     MOCLDY    64  63  94 E3        29.73F FOG
OLATHE IND     MOCLDY    65  63  93 E8        29.75F
OLATHE EXE     PTCLDY    65  63  93 SE9       29.74F
SALINA         CLEAR     65  62  90 CALM      29.73R
TOPEKA BILLARD MOCLDY    68  67  96 NE3       29.74S
TOPEKA FORBES  CLEAR     66  65  96 E6        29.73F
$$


USA.gov is the U.S. government's official web portal to all federal, state and local government web resources and services.